• In Germany
  • List of Countries
  • For 7 days
  • Water Temperature
  • Satellite Maps
  • Weather Map
  • Weather Widgets
  • user-avatar
    Login

    Hourly Weather Buy

    Today, 22 April, Sunday

    Time Temperature Precipitation Wind Pressure Humidity
    00:00 +7°C° 0 mm 1 mps 710 mmHg 70%
    01:00 +6°C° 0 mm 1 mps 710 mmHg 71%
    02:00 +6°C° 0 mm 1 mps 710 mmHg 72%
    03:00 +5°C° 0 mm 1 mps 711 mmHg 72%
    04:00 +5°C° 0 mm 1 mps 711 mmHg 73%
    05:00 +7°C° 0 mm 1 mps 711 mmHg 66%
    06:00 +8°C° 0 mm 1 mps 711 mmHg 59%
    07:00 +11°C° 0 mm 1 mps 711 mmHg 49%
    08:00 +13°C° 0 mm 1 mps 711 mmHg 42%
    09:00 +15°C° 0 mm 1 mps 711 mmHg 35%
    10:00 +17°C° 0 mm 2 mps 711 mmHg 27%
    11:00 +18°C° 0 mm 2 mps 710 mmHg 25%
    12:00 +19°C° 0 mm 2 mps 710 mmHg 22%
    13:00 +19°C° 0 mm 2 mps 710 mmHg 21%
    14:00 +19°C° 0 mm 2 mps 710 mmHg 21%
    15:00 +19°C° 0 mm 2 mps 710 mmHg 21%
    16:00 +19°C° 0 mm 2 mps 709 mmHg 21%
    17:00 +16°C° 0 mm 2 mps 709 mmHg 25%
    18:00 +14°C° 0 mm 2 mps 709 mmHg 29%
    19:00 +12°C° 0 mm 1 mps 709 mmHg 33%
    20:00 +10°C° 0 mm 2 mps 709 mmHg 35%
    21:00 +9°C° 0 mm 2 mps 709 mmHg 37%
    22:00 +8°C° 0 mm 2 mps 710 mmHg 39%
    23:00 +8°C° 0 mm 2 mps 710 mmHg 41%

    Tomorrow, 23 April, Monday

    Time Temperature Precipitation Wind Pressure Humidity
    00:00 +7°C° 0 mm 2 mps 710 mmHg 43%
    01:00 +7°C° 0 mm 2 mps 710 mmHg 44%
    02:00 +6°C° 0 mm 2 mps 710 mmHg 45%
    03:00 +6°C° 0 mm 2 mps 710 mmHg 46%
    04:00 +5°C° 0 mm 3 mps 710 mmHg 46%
    05:00 +7°C° 0 mm 3 mps 710 mmHg 43%
    06:00 +8°C° 0 mm 4 mps 710 mmHg 39%
    07:00 +10°C° 0 mm 5 mps 710 mmHg 36%
    08:00 +13°C° 0 mm 5 mps 710 mmHg 32%
    09:00 +15°C° 0 mm 5 mps 709 mmHg 28%
    10:00 +17°C° 0 mm 6 mps 709 mmHg 24%
    11:00 +19°C° 0 mm 6 mps 709 mmHg 23%
    12:00 +20°C° 0 mm 5 mps 708 mmHg 21%
    13:00 +21°C° 0 mm 5 mps 708 mmHg 19%
    14:00 +21°C° 0 mm 5 mps 708 mmHg 19%
    15:00 +21°C° 0 mm 4 mps 707 mmHg 19%
    16:00 +21°C° 0 mm 4 mps 707 mmHg 19%
    17:00 +19°C° 0 mm 3 mps 707 mmHg 24%
    18:00 +17°C° 0 mm 2 mps 707 mmHg 29%
    19:00 +14°C° 0 mm 2 mps 707 mmHg 34%
    20:00 +13°C° 0 mm 2 mps 707 mmHg 37%
    21:00 +12°C° 0 mm 2 mps 707 mmHg 40%
    22:00 +10°C° 0 mm 2 mps 707 mmHg 42%
    23:00 +10°C° 0 mm 2 mps 707 mmHg 44%

    Day after tomorrow, 24 April, Tuesday

    Time Temperature Precipitation Wind Pressure Humidity
    00:00 +9°C° 0 mm 2 mps 707 mmHg 45%
    01:00 +9°C° 0 mm 2 mps 707 mmHg 47%
    02:00 +9°C° 0 mm 2 mps 706 mmHg 48%
    03:00 +8°C° 0 mm 2 mps 706 mmHg 48%
    04:00 +8°C° 0 mm 2 mps 706 mmHg 49%
    05:00 +10°C° 0 mm 2 mps 706 mmHg 44%
    06:00 +13°C° 0 mm 2 mps 705 mmHg 40%
    07:00 +13°C° 0 mm 3 mps 705 mmHg 35%
    08:00 +17°C° 0 mm 3 mps 705 mmHg 30%
    09:00 +19°C° 0 mm 3 mps 704 mmHg 25%
    10:00 +22°C° 0 mm 4 mps 704 mmHg 19%
    11:00 +23°C° 0 mm 4 mps 703 mmHg 17%
    12:00 +25°C° 0 mm 5 mps 703 mmHg 15%
    13:00 +26°C° 0 mm 5 mps 702 mmHg 13%
    14:00 +26°C° 0 mm 5 mps 702 mmHg 14%
    15:00 +26°C° 0 mm 5 mps 701 mmHg 14%
    16:00 +26°C° 0 mm 5 mps 700 mmHg 15%
    17:00 +23°C° 0 mm 4 mps 700 mmHg 19%
    18:00 +20°C° 0 mm 3 mps 700 mmHg 23%
    19:00 +18°C° 0 mm 2 mps 699 mmHg 27%
    20:00 +17°C° 0 mm 2 mps 699 mmHg 28%
    21:00 +16°C° 0 mm 2 mps 699 mmHg 30%
    22:00 +15°C° 0 mm 2 mps 699 mmHg 32%
    23:00 +14°C° 0 mm 2 mps 699 mmHg 34%

    25 April, Wednesday

    Time Temperature Precipitation Wind Pressure Humidity
    00:00 +13°C° 0 mm 1 mps 699 mmHg 35%
    01:00 +12°C° 0 mm 1 mps 699 mmHg 37%
    02:00 +11°C° 0 mm 1 mps 699 mmHg 40%
    03:00 +10°C° 0 mm 2 mps 700 mmHg 43%
    04:00 +9°C° 0 mm 2 mps 700 mmHg 46%
    05:00 +10°C° 0 mm 2 mps 701 mmHg 52%
    06:00 +11°C° 0 mm 3 mps 701 mmHg 57%
    07:00 +12°C° 0 mm 4 mps 702 mmHg 62%
    08:00 +13°C° 0 mm 4 mps 702 mmHg 56%
    09:00 +14°C° 0 mm 4 mps 703 mmHg 50%
    10:00 +14°C° 0 mm 4 mps 703 mmHg 44%
    11:00 +15°C° 0 mm 5 mps 703 mmHg 43%
    12:00 +15°C° 0 mm 5 mps 703 mmHg 41%
    13:00 +16°C° 0 mm 6 mps 703 mmHg 40%
    14:00 +16°C° 0 mm 5 mps 703 mmHg 39%
    15:00 +16°C° 0 mm 5 mps 703 mmHg 38%
    16:00 +16°C° 0 mm 5 mps 703 mmHg 37%
    17:00 +14°C° 0 mm 3 mps 702 mmHg 42%
    18:00 +14°C° 0 mm 2 mps 702 mmHg 47%
    19:00 +12°C° 0 mm 1 mps 702 mmHg 53%
    20:00 +11°C° 0 mm 1 mps 703 mmHg 56%
    21:00 +10°C° 0 mm 1 mps 703 mmHg 59%
    22:00 +9°C° 0 mm 1 mps 703 mmHg 62%
    23:00 +9°C° 0 mm 1 mps 703 mmHg 63%

    26 April, Thursday

    Time Temperature Precipitation Wind Pressure Humidity
    00:00 +8°C° 0 mm 1 mps 703 mmHg 65%
    01:00 +8°C° 0 mm 1 mps 703 mmHg 66%
    02:00 +8°C° 0 mm 1 mps 703 mmHg 65%
    03:00 +8°C° 0 mm 1 mps 703 mmHg 64%
    04:00 +9°C° 0 mm 1 mps 703 mmHg 64%
    05:00 +10°C° 0 mm 1 mps 703 mmHg 58%
    06:00 +12°C° 0 mm 1 mps 703 mmHg 53%
    07:00 +14°C° 0 mm 1 mps 703 mmHg 47%
    08:00 +16°C° 0 mm 1 mps 703 mmHg 42%
    09:00 +18°C° 0 mm 2 mps 704 mmHg 37%
    10:00 +20°C° 0 mm 2 mps 704 mmHg 32%
    11:00 +21°C° 0 mm 2 mps 703 mmHg 30%
    12:00 +23°C° 0 mm 2 mps 703 mmHg 28%
    13:00 +24°C° 0 mm 3 mps 703 mmHg 26%
    14:00 +24°C° 0 mm 2 mps 702 mmHg 27%
    15:00 +24°C° 0 mm 2 mps 702 mmHg 29%
    16:00 +23°C° 0 mm 2 mps 702 mmHg 30%
    17:00 +20°C° 0 mm 2 mps 702 mmHg 37%
    18:00 +18°C° 0 mm 2 mps 702 mmHg 44%
    19:00 +16°C° 0 mm 2 mps 702 mmHg 50%
    20:00 +15°C° 0 mm 2 mps 702 mmHg 57%
    21:00 +14°C° 0 mm 2 mps 702 mmHg 64%
    22:00 +13°C° 0 mm 2 mps 702 mmHg 70%
    23:00 +12°C° 0 mm 2 mps 702 mmHg 75%

    27 April, Friday

    Time Temperature Precipitation Wind Pressure Humidity
    00:00 +10°C° 0 mm 2 mps 702 mmHg 80%
    01:00 +9°C° 0 mm 3 mps 702 mmHg 85%
    02:00 +9°C° 0 mm 3 mps 703 mmHg 84%
    03:00 +8°C° 0 mm 3 mps 703 mmHg 84%
    04:00 +8°C° 0 mm 3 mps 704 mmHg 84%
    05:00 +8°C° 0.1 mm 3 mps 704 mmHg 80%
    06:00 +9°C° 0.1 mm 2 mps 705 mmHg 76%
    07:00 +9°C° 0.1 mm 2 mps 706 mmHg 72%
    08:00 +12°C° 0 mm 2 mps 706 mmHg 61%
    09:00 +14°C° 0 mm 2 mps 706 mmHg 49%
    10:00 +14°C° 0 mm 3 mps 706 mmHg 38%
    11:00 +16°C° 0 mm 3 mps 706 mmHg 33%
    12:00 +17°C° 0 mm 3 mps 705 mmHg 28%
    13:00 +18°C° 0 mm 3 mps 705 mmHg 23%
    14:00 +18°C° 0 mm 3 mps 705 mmHg 23%
    15:00 +18°C° 0 mm 3 mps 705 mmHg 23%
    16:00 +18°C° 0 mm 3 mps 704 mmHg 23%
    17:00 +16°C° 0 mm 3 mps 704 mmHg 27%
    18:00 +15°C° 0 mm 2 mps 704 mmHg 32%
    19:00 +13°C° 0 mm 1 mps 704 mmHg 36%
    20:00 +12°C° 0 mm 1 mps 704 mmHg 39%
    21:00 +11°C° 0 mm 1 mps 704 mmHg 42%
    22:00 +10°C° 0 mm 1 mps 704 mmHg 45%
    23:00 +10°C° 0 mm 1 mps 704 mmHg 47%
    Show more